San Antonio, TX

1:31 PM CST on December 05, 2016 (GMT -0600)
Stinson Municipal

Weather History for KSSF - February, 2014

Change the Weather History Date:

Monday, February 10, 2014

  Actual Average Record
Temperature  
Mean Temperature 50 °F -  
Max Temperature 62 °F 63 °F 82 °F (2009)
Min Temperature 37 °F 44 °F 24 °F (2011)
Degree Days  
Heating Degree Days 14    
Moisture  
Dew Point 48 °F    
Average Humidity 86    
Maximum Humidity 100    
Minimum Humidity 66    
Precipitation  
Precipitation 0.00 in - - ()
Sea Level Pressure  
Sea Level Pressure 30.04 in    
Wind  
Wind Speed 12 mph (NNE)    
Max Wind Speed 16 mph    
Max Gust Speed 25 mph    
Visibility 5 miles    
Events Fog , Rain    
Averages and records for this station are not official NWS values.
T = Trace of Precipitation, MM = Missing Value Source: NWS Daily Summary

Daily Weather History Graph

Daily Weather History Graph

Search for Another Location

Airport or City:

Trip Planner

Search our weather history database for the weather conditions in past years. The results will help you decide how hot, cold, wet, or windy it might be!

Date:

Astronomy

Feb. 10, 2014 Rise Set
Actual Time 7:17 AM CST 6:19 PM CST
Civil Twilight 6:52 AM CST 6:44 PM CST
Nautical Twilight 6:24 AM CST 7:12 PM CST
Astronomical Twilight 5:56 AM CST 7:39 PM CST
Moon 2:57 PM CST (2/10) 4:03 AM CST (2/10)
Length of Visible Light 11h 51m
Length of Day
11h 02m
Waxing Gibbous, 85% of the Moon is Illuminated
Feb 10
Waxing Gibbous
Feb 14
Full
Feb 22
Last Quarter
Mar 1
New
Mar 8
First Quarter

Hourly Weather History & Observations

Time (CST) Temp. Windchill Dew Point Humidity Pressure Visibility Wind Dir Wind Speed Gust Speed Precip Events Conditions
12:05 AM 60.8 °F - 57.2 °F 88% 29.98 in 2.5 mi North - - N/A   Overcast
12:17 AM 60.8 °F - 57.2 °F 88% 29.98 in 1.2 mi North - - N/A   Overcast
12:39 AM 60.8 °F - 59.0 °F 94% 29.97 in 0.5 mi North - - N/A Fog Fog
12:53 AM 60.1 °F - 59.0 °F 96% 29.96 in 0.2 mi North - - N/A Fog Fog
1:53 AM 61.0 °F - 60.1 °F 97% 29.96 in 0.2 mi North - - N/A Fog Fog
2:53 AM 61.0 °F - 60.1 °F 97% 29.96 in 0.8 mi North - - N/A   Mist
3:03 AM 62.6 °F - 60.8 °F 94% 29.97 in 1.0 mi North - - N/A   Mist
3:30 AM 62.6 °F - 60.8 °F 94% 29.97 in 0.8 mi North - - N/A   Mist
3:49 AM 62.6 °F - 60.8 °F 94% 29.97 in 1.0 mi North - - N/A   Overcast
3:53 AM 62.1 °F - 61.0 °F 96% 29.96 in 1.2 mi North - - N/A   Overcast
4:07 AM 60.8 °F - 60.8 °F 100% 29.97 in 0.8 mi North - - N/A   Overcast
4:18 AM 60.8 °F - 60.8 °F 100% 29.97 in 1.0 mi North - - N/A   Overcast
4:29 AM 60.8 °F - 60.8 °F 100% 29.97 in 2.0 mi North - - N/A   Overcast
4:39 AM 60.8 °F - 60.8 °F 100% 29.98 in 1.5 mi North - - N/A   Overcast
4:53 AM 61.0 °F - 60.1 °F 97% 29.97 in 1.5 mi North - - N/A   Overcast
5:01 AM 60.8 °F - 60.8 °F 100% 29.99 in 1.5 mi North - - N/A   Overcast
5:27 AM 60.8 °F - 60.8 °F 100% 29.99 in 2.5 mi North - - N/A   Overcast
5:44 AM 57.2 °F - 57.2 °F 100% 30.00 in 1.8 mi North - - N/A   Overcast
5:53 AM 57.0 °F - 55.9 °F 96% 29.99 in 2.0 mi North - - N/A   Overcast
6:03 AM 55.4 °F - 53.6 °F 94% 30.00 in 1.8 mi North - - N/A   Overcast
6:53 AM 53.1 °F - 52.0 °F 96% 30.03 in 1.2 mi NNE 9.2 mph - N/A   Overcast
7:33 AM 51.8 °F - 50.0 °F 94% 30.05 in 1.8 mi North - - 0.00 in   Overcast
7:53 AM 51.1 °F - 48.9 °F 92% 30.06 in 1.2 mi NNE 11.5 mph - 0.00 in   Overcast
8:53 AM 48.0 °F - 46.0 °F 93% 30.09 in 2.0 mi NNE 11.5 mph 17.3 mph N/A   Overcast
9:08 AM 48.2 °F - 46.4 °F 93% 30.09 in 3.0 mi North - - N/A   Mist
9:53 AM 46.9 °F - 43.0 °F 86% 30.13 in 6.0 mi NNE 13.8 mph 20.7 mph 0.00 in Rain Light Rain
10:36 AM 46.4 °F 41.5 °F 42.8 °F 87% 30.13 in 8.0 mi NNE 10.4 mph 18.4 mph 0.00 in   Overcast
10:53 AM 46.0 °F 39.9 °F 41.0 °F 83% 30.14 in 10.0 mi NNE 13.8 mph 23.0 mph 0.00 in   Overcast
11:53 AM 46.9 °F - 39.9 °F 77% 30.12 in 10.0 mi NNE 15.0 mph 20.7 mph 0.00 in   Overcast
12:45 PM 48.2 °F - 39.2 °F 71% 30.09 in 10.0 mi NNE 16.1 mph 23.0 mph 0.00 in   Overcast
12:53 PM 46.9 °F - 39.0 °F 74% 30.09 in 10.0 mi NNE 13.8 mph 24.2 mph 0.00 in   Overcast
1:53 PM 46.9 °F - 37.9 °F 71% 30.07 in 10.0 mi North 16.1 mph 23.0 mph N/A   Overcast
2:53 PM 46.9 °F - 37.0 °F 68% 30.05 in 10.0 mi NE 16.1 mph 25.3 mph N/A   Overcast
3:14 PM 48.2 °F - 37.4 °F 66% 30.04 in - North - - N/A   Unknown
3:53 PM 46.9 °F - 37.0 °F 68% 30.04 in 10.0 mi NNE 12.7 mph 20.7 mph N/A   Unknown
4:01 PM 46.4 °F 40.4 °F 37.4 °F 71% 30.05 in 10.0 mi North 13.8 mph - N/A   Overcast
4:53 PM 45.0 °F 37.9 °F 36.0 °F 71% 30.07 in 10.0 mi NNE 16.1 mph 24.2 mph N/A   Overcast
5:53 PM 43.0 °F 37.2 °F 35.1 °F 74% 30.09 in 10.0 mi NNE 10.4 mph - N/A   Overcast
6:53 PM 42.1 °F 37.1 °F 35.1 °F 76% 30.10 in 10.0 mi NNE 8.1 mph - N/A   Overcast
7:53 PM 42.1 °F 34.5 °F 34.0 °F 73% 30.12 in 10.0 mi NNE 15.0 mph 20.7 mph N/A   Overcast
8:53 PM 41.0 °F 34.7 °F 33.1 °F 73% 30.14 in 10.0 mi NE 10.4 mph 21.9 mph N/A   Overcast
9:53 PM 39.9 °F 32.1 °F 33.1 °F 77% 30.15 in 10.0 mi NNE 13.8 mph 20.7 mph N/A   Overcast
10:53 PM 39.0 °F 30.3 °F 32.0 °F 76% 30.15 in 10.0 mi NNE 16.1 mph 21.9 mph N/A   Overcast
11:15 PM 39.2 °F 30.8 °F 32.0 °F 75% 30.14 in 10.0 mi NNE 15.0 mph 23.0 mph N/A   Overcast
11:53 PM 37.9 °F 29.6 °F 30.9 °F 76% 30.15 in 10.0 mi NNE 13.8 mph 21.9 mph N/A   Overcast